Location: Newark
(54.2500°N, 9.1833°E)
Time: 02:35:07
(UTC+00:00)

Tiros 1 despin weight - All Passes

Search period start: 11 December 2019 00:00
Search period end: 21 December 2019 00:00
Orbit: 594 x 642 km, 48.2° (Epoch: 10 December)

Date Brightness Start Highest point End Pass type
(mag) Time Alt. Az. Time Alt. Az. Time Alt. Az.
11 Dec - 03:31:48 10° SSE 03:32:23 10° SE 03:32:58 10° SE visible
11 Dec - 05:09:06 10° SW 05:12:53 27° SSE 05:16:38 10° ESE visible
11 Dec - 06:49:38 10° WSW 06:53:48 38° S 06:57:56 10° ESE visible
11 Dec - 08:30:56 10° WSW 08:34:45 28° SSW 08:38:33 10° SE daylight
11 Dec - 10:13:49 10° WSW 10:15:17 11° SW 10:16:44 10° SSW daylight
12 Dec - 03:45:41 10° S 03:48:28 16° SSE 03:51:15 10° ESE visible
12 Dec - 05:25:08 10° SW 05:29:11 33° SSE 05:33:11 10° ESE visible
12 Dec - 07:06:03 10° WSW 07:10:11 37° S 07:14:16 10° ESE daylight
12 Dec - 08:47:37 10° WSW 08:51:00 21° SSW 08:54:22 10° SSE daylight
13 Dec - 04:01:06 10° SSW 04:04:40 23° SSE 04:08:12 10° ESE visible
13 Dec - 05:41:21 10° WSW 05:45:31 37° S 05:49:39 10° ESE visible
13 Dec - 07:22:31 10° WSW 07:26:31 32° SSW 07:30:28 10° SE daylight
13 Dec - 09:04:38 10° WSW 09:07:10 15° SSW 09:09:40 10° S daylight
14 Dec - 02:38:19 10° S 02:40:20 13° SE 02:42:20 10° ESE visible
14 Dec - 04:16:58 10° SW 04:20:55 30° SSE 04:24:50 10° ESE visible
14 Dec - 05:57:42 10° WSW 06:01:54 38° S 06:06:02 10° ESE visible
14 Dec - 07:39:05 10° WSW 07:42:48 26° SSW 07:46:27 10° SSE daylight
15 Dec - 02:53:15 10° SSW 02:56:28 19° SSE 02:59:40 10° ESE visible
15 Dec - 04:33:06 10° SW 04:37:15 35° S 04:41:21 10° ESE visible
15 Dec - 06:14:08 10° WSW 06:18:15 35° S 06:22:19 10° SE visible
15 Dec - 07:55:53 10° WSW 07:59:00 19° SSW 08:02:06 10° SSE daylight
16 Dec - 03:08:54 10° SW 03:12:40 26° SSE 03:16:26 10° ESE visible
16 Dec - 04:49:24 10° WSW 04:53:36 38° S 04:57:46 10° ESE visible
16 Dec - 06:30:39 10° WSW 06:34:34 30° SSW 06:38:26 10° SE visible
16 Dec - 08:13:15 10° WSW 08:15:08 12° SW 08:17:00 10° SSW daylight
17 Dec - 01:45:36 10° S 01:48:17 15° SSE 01:50:58 10° ESE night (unlit)
17 Dec - 03:24:54 10° SW 03:28:58 33° SSE 03:33:00 10° ESE visible
17 Dec - 05:05:46 10° WSW 05:09:58 38° S 05:14:07 10° ESE visible
17 Dec - 06:47:17 10° WSW 06:50:49 23° SSW 06:54:19 10° SSE visible
18 Dec - 02:00:55 10° SSW 02:04:28 22° SSE 02:07:58 10° ESE visible
18 Dec - 03:41:06 10° WSW 03:45:19 37° S 03:49:29 10° ESE visible
18 Dec - 05:22:14 10° WSW 05:26:19 33° SSW 05:30:20 10° SE visible
18 Dec - 07:04:13 10° WSW 07:06:59 16° SSW 07:09:44 10° S daylight
19 Dec - 00:38:21 10° SSE 00:40:09 12° SE 00:41:56 10° ESE night (unlit)
19 Dec - 02:16:45 10° SW 02:20:42 29° SSE 02:24:38 10° ESE visible
19 Dec - 03:57:26 10° WSW 04:01:41 39° S 04:05:52 10° ESE visible
19 Dec - 05:38:48 10° WSW 05:42:36 27° SSW 05:46:22 10° SE visible
19 Dec - 07:22:34 10° SW 07:23:04 10° SW 07:23:34 10° SSW daylight
20 Dec - 00:53:06 10° SSW 00:56:16 18° SSE 00:59:24 10° ESE night (unlit)
20 Dec - 02:32:51 10° SW 02:37:02 35° S 02:41:10 10° ESE visible
20 Dec - 04:13:51 10° WSW 04:18:02 36° S 04:22:10 10° ESE visible
20 Dec - 05:55:32 10° WSW 05:58:50 20° SSW 06:02:06 10° SSE visible
